Overview Statistics Trail Chart Weather Telemetry Raw packets
 

This is the latest recevied weather packets stored in our database for station/object N4ASP-13. If no packets are shown the sender has not sent any weather packets the latest 10 day(s).

<< 1 2 3 4 >>
Time Temp. Humidity Pressure Rain* Wind** Luminosity Snow
1788633105 25° C 70% 1014.5 hPa 0 mm - 338 W/m² -
1788633046 25° C 70% 1014.5 hPa 0 mm - 329 W/m² -
1788632977 25° C 69% 1014.6 hPa 0 mm - 316 W/m² -
1788632915 25° C 69% 1014.4 hPa 0 mm - 306 W/m² -
1788632856 25° C 69% 1014.2 hPa 0 mm - 276 W/m² -
1788632796 25° C 68% 1014.2 hPa 0 mm - 260 W/m² -
1788632736 25° C 68% 1014.4 hPa 0 mm - 244 W/m² -
1788632674 25° C 69% 1014.6 hPa 0 mm - 227 W/m² -
1788632613 25° C 68% 1014.7 hPa 0 mm - 213 W/m² -
1788632553 25° C 69% 1014.8 hPa 0 mm - 200 W/m² -
1788632494 25° C 68% 1014.8 hPa 0 mm - 188 W/m² -
1788632434 25° C 68% 1014.8 hPa 0 mm - 185 W/m² -
1788632375 25.56° C 67% 1014.6 hPa 0 mm - 185 W/m² -
1788632314 25.56° C 66% 1014.4 hPa 0 mm - 186 W/m² -
1788632253 25.56° C 67% 1014.4 hPa 0 mm - 190 W/m² -
1788632194 25.56° C 67% 1014.4 hPa 0 mm - 192 W/m² -
1788632135 25.56° C 66% 1014.4 hPa 0 mm - 193 W/m² -
1788632074 25.56° C 66% 1014.5 hPa 0 mm - 193 W/m² -
1788632015 25.56° C 67% 1014.5 hPa 0 mm - 192 W/m² -
1788631954 25.56° C 67% 1014.6 hPa 0 mm - 188 W/m² -
1788631894 25.56° C 68% 1014.6 hPa 0 mm - 186 W/m² -
1788631834 25.56° C 68% 1014.7 hPa 0 mm - 185 W/m² -
1788631776 25.56° C 67% 1014.8 hPa 0 mm - 190 W/m² -
1788631715 25.56° C 67% 1014.9 hPa 0 mm - 195 W/m² -
1788631655 25.56° C 67% 1014.8 hPa 0 mm - 199 W/m² -

* Rain latest hour (hover to see other rain measurements)
** Current wind speed in m/s (hover to see current wind gust speed)